{"data":{"norad_id":67716,"epoch":"2026-09-19T06:37:08.226624Z","epoch_age_seconds":172201,"freshness":"FRESH","line1":"1 67716U 26025Z   26262.27578966  .00018749  00000+0  58145-3 0  9994","line2":"2 67716  97.2876  12.1285 0001396 111.5894 248.5497 15.33455737 35678","mean_motion":15.33455737,"eccentricity":0.0001396,"inclination_deg":97.2876,"raan_deg":12.1285,"arg_perigee_deg":111.5894,"mean_anomaly_deg":248.5497,"bstar":0.00058145,"rev_number":3567,"period_min":93.905547141332,"perigee_km":464.5558556139,"apogee_km":466.46660219941,"semimajor_km":6843.6482289067,"source":"CELESTRAK","updated_at":"2026-09-20T09:00:43.655844Z"}}